Change the Weather History Date:

Friday, April 18, 2014

  Actual Average (KLWV) Record (KLWV)
Temperature  
Mean Temperature 56 °F 57 °F  
Max Temperature 70 °F 68 °F 86 °F (2004)
Min Temperature 41 °F 46 °F 28 °F (2001)
Degree Days  
Heating Degree Days 10 9  
Month to date heating degree days 213  
Since 1 July heating degree days 4510  
Cooling Degree Days 0 1  
Month to date cooling degree days 12  
Year to date cooling degree days 14  
Growing Degree Days 6 (Base 50)    
Moisture  
Dew Point 42 °F    
Average Humidity 65    
Maximum Humidity 97    
Minimum Humidity 32    
Precipitation  
Precipitation 0.00 in 0.13 in 2.19 in (2013)
Month to date precipitation 2.08  
Year to date precipitation 9.90  
Sea Level Pressure  
Sea Level Pressure 30.25 in    
Wind  
Wind Speed 2 mph (North)    
Max Wind Speed 9 mph    
Max Gust Speed -    
Visibility 10 miles    
Events      
T = Trace of Precipitation, MM = Missing Value Source: NWS Daily Summary

Daily Weather History Graph

Daily Weather History Graph

Search for Another Location

Airport or City:

Trip Planner

Search our weather history database for the weather conditions in past years. The results will help you decide how hot, cold, wet, or windy it might be!

Date:

Astronomy

Apr. 18, 2014 Rise Set
Actual Time 7:08 AM EDT 8:28 PM EDT
Civil Twilight 6:40 AM EDT 8:56 PM EDT
Nautical Twilight 6:07 AM EDT 9:29 PM EDT
Astronomical Twilight 5:32 AM EDT 10:04 PM EDT
Moon No Moon Rise 9:31 AM EDT (4/18)
Length of Visible Light 14h 15m
Length of Day
13h 20m
Waning Gibbous, 87% of the Moon is Illuminated
Apr 18
Waning Gibbous
Apr 22
Last Quarter
Apr 29
New
May 6
First Quarter
May 14
Full

Hourly Weather History & Observations

Time (EDT) Temp. Windchill Dew Point Humidity Pressure Visibility Wind Dir Wind Speed Gust Speed Precip Events Conditions
12:15 AM 46.6 °F - 43.2 °F 88% 30.26 in 10.0 mi Calm Calm - N/A   Clear
12:35 AM 46.2 °F - 41.2 °F 83% 30.25 in 10.0 mi Calm Calm - N/A   Clear
12:55 AM 46.8 °F - 41.7 °F 83% 30.25 in 10.0 mi Calm Calm - N/A   Clear
1:15 AM 44.4 °F - 42.3 °F 92% 30.26 in 10.0 mi Calm Calm - N/A   Clear
1:35 AM 43.9 °F - 42.1 °F 93% 30.26 in 10.0 mi Calm Calm - N/A   Clear
1:55 AM 44.1 °F - 41.5 °F 91% 30.25 in 10.0 mi Calm Calm - N/A   Clear
2:15 AM 44.6 °F - 41.9 °F 90% 30.25 in 10.0 mi Calm Calm - N/A   Clear
2:35 AM 45.5 °F - 41.9 °F 87% 30.25 in 10.0 mi Calm Calm - N/A   Clear
2:55 AM 43.2 °F - 39.7 °F 88% 30.24 in 10.0 mi Calm Calm - N/A   Clear
3:15 AM 44.6 °F - 39.4 °F 82% 30.24 in 10.0 mi Calm Calm - N/A   Clear
3:35 AM 43.0 °F - 41.4 °F 94% 30.25 in 10.0 mi Calm Calm - N/A   Clear
3:55 AM 42.6 °F - 41.0 °F 94% 30.25 in 10.0 mi Calm Calm - N/A   Clear
4:15 AM 43.0 °F - 40.1 °F 90% 30.25 in 10.0 mi Calm Calm - N/A   Clear
4:35 AM 44.1 °F - 40.1 °F 86% 30.25 in 10.0 mi Calm Calm - N/A   Clear
4:55 AM 41.5 °F - 39.2 °F 91% 30.26 in 10.0 mi Calm Calm - N/A   Clear
5:15 AM 42.3 °F - 40.5 °F 93% 30.26 in 10.0 mi Calm Calm - N/A   Clear
5:35 AM 41.2 °F 37.3 °F 39.9 °F 95% 30.26 in 10.0 mi SSE 5.8 mph - N/A   Clear
5:55 AM 41.4 °F - 40.3 °F 96% 30.26 in 10.0 mi Calm Calm - N/A   Clear
6:15 AM 41.4 °F 38.4 °F 40.3 °F 96% 30.26 in 10.0 mi SSE 4.6 mph - N/A   Clear
6:35 AM 41.0 °F - 39.6 °F 95% 30.26 in 10.0 mi Calm Calm - N/A   Clear
6:55 AM 41.0 °F - 39.4 °F 94% 30.26 in 10.0 mi Calm Calm - N/A   Clear
7:15 AM 41.0 °F 39.0 °F 39.7 °F 95% 30.26 in 10.0 mi SSE 3.5 mph - N/A   Clear
7:35 AM 41.2 °F - 40.3 °F 97% 30.26 in 10.0 mi Calm Calm - N/A   Clear
7:55 AM 43.0 °F - 41.7 °F 95% 30.26 in 10.0 mi Calm Calm - N/A   Clear
8:15 AM 44.4 °F - 42.3 °F 92% 30.27 in 10.0 mi Calm Calm - N/A   Clear
8:35 AM 47.3 °F - 42.6 °F 84% 30.28 in 10.0 mi Calm Calm - N/A   Clear
8:55 AM 47.8 °F - 43.0 °F 83% 30.28 in 10.0 mi Calm Calm - N/A   Clear
9:15 AM 50.0 °F - 43.7 °F 79% 30.28 in 10.0 mi Calm Calm - N/A   Clear
9:35 AM 52.2 °F - 45.1 °F 77% 30.28 in 10.0 mi SE 4.6 mph - N/A   Clear
9:55 AM 55.0 °F - 44.8 °F 68% 30.28 in 10.0 mi SSE 5.8 mph - N/A   Clear
10:15 AM 57.4 °F - 44.8 °F 63% 30.28 in 10.0 mi SSE 5.8 mph - N/A   Clear
10:35 AM 59.5 °F - 42.4 °F 53% 30.29 in 10.0 mi SSE 5.8 mph - N/A   Clear
10:55 AM 60.6 °F - 42.6 °F 52% 30.29 in 10.0 mi Calm Calm - N/A   Clear
11:15 AM 61.2 °F - 41.4 °F 48% 30.29 in 10.0 mi Calm Calm - N/A   Clear
11:35 AM 62.1 °F - 41.4 °F 47% 30.30 in 10.0 mi Calm Calm - N/A   Clear
12:15 PM 64.6 °F - 41.0 °F 42% 30.29 in 10.0 mi Calm Calm - N/A   Clear
12:35 PM 65.5 °F - 40.1 °F 39% 30.29 in 10.0 mi NNW 4.6 mph - N/A   Clear
12:55 PM 65.8 °F - 39.6 °F 38% 30.29 in 10.0 mi Calm Calm - N/A   Clear
1:15 PM 67.5 °F - 41.0 °F 38% 30.28 in 10.0 mi NNW 3.5 mph - N/A   Clear
1:35 PM 67.5 °F - 40.1 °F 37% 30.28 in 10.0 mi WNW 5.8 mph - N/A   Clear
1:55 PM 67.8 °F - 39.6 °F 36% 30.28 in 10.0 mi NNW 3.5 mph - N/A   Clear
2:15 PM 68.7 °F - 40.1 °F 35% 30.27 in 10.0 mi NW 4.6 mph - N/A   Clear
2:35 PM 68.4 °F - 39.7 °F 35% 30.26 in 10.0 mi North 5.8 mph - N/A   Clear
2:55 PM 68.7 °F - 38.3 °F 33% 30.26 in 10.0 mi NW 4.6 mph - N/A   Clear
3:15 PM 68.9 °F - 38.7 °F 33% 30.26 in 10.0 mi Calm Calm - N/A   Clear
3:35 PM 69.1 °F - 39.9 °F 35% 30.25 in 10.0 mi ESE 3.5 mph - N/A   Clear
3:55 PM 69.8 °F - 40.1 °F 34% 30.25 in 10.0 mi NE 3.5 mph - N/A   Clear
4:15 PM 68.9 °F - 41.5 °F 37% 30.24 in 10.0 mi North 4.6 mph - N/A   Scattered Clouds
4:35 PM 70.2 °F - 40.8 °F 34% 30.23 in 10.0 mi NNW 3.5 mph - N/A   Scattered Clouds
4:55 PM 69.6 °F - 38.7 °F 32% 30.22 in 10.0 mi NNW 3.5 mph - N/A   Clear
5:15 PM 70.2 °F - 39.7 °F 33% 30.21 in 10.0 mi Calm Calm - N/A   Mostly Cloudy
5:35 PM 69.8 °F - 41.0 °F 35% 30.21 in 10.0 mi ENE 4.6 mph - N/A   Overcast
5:55 PM 68.5 °F - 42.4 °F 39% 30.21 in 10.0 mi ENE 4.6 mph - N/A   Mostly Cloudy
6:15 PM 68.5 °F - 44.1 °F 41% 30.20 in 10.0 mi ENE 4.6 mph - N/A   Mostly Cloudy
6:35 PM 67.5 °F - 44.4 °F 43% 30.20 in 10.0 mi NNE 3.5 mph - N/A   Scattered Clouds
6:55 PM 67.1 °F - 44.8 °F 45% 30.19 in 10.0 mi North 4.6 mph - N/A   Clear
7:15 PM 67.8 °F - 44.1 °F 42% 30.19 in 10.0 mi North 4.6 mph - N/A   Clear
7:35 PM 67.1 °F - 45.3 °F 45% 30.19 in 10.0 mi NNW 3.5 mph - N/A   Clear
7:55 PM 65.1 °F - 46.4 °F 51% 30.20 in 10.0 mi NNW 3.5 mph - N/A   Clear
8:15 PM 61.5 °F - 47.3 °F 60% 30.20 in 10.0 mi NNW 3.5 mph - N/A   Clear
8:35 PM 59.0 °F - 48.2 °F 67% 30.20 in 10.0 mi NNW 6.9 mph - N/A   Clear
8:55 PM 56.1 °F - 47.8 °F 74% 30.20 in 10.0 mi NNW 3.5 mph - N/A   Clear
9:15 PM 56.3 °F - 45.9 °F 68% 30.21 in 10.0 mi NNW 4.6 mph - N/A   Clear
9:35 PM 57.7 °F - 44.8 °F 62% 30.21 in 10.0 mi Calm Calm - N/A   Clear
9:55 PM 57.4 °F - 44.8 °F 63% 30.21 in 10.0 mi NNE 3.5 mph - N/A   Clear
10:15 PM 57.2 °F - 45.1 °F 64% 30.22 in 10.0 mi North 3.5 mph - N/A   Clear
10:35 PM 55.2 °F - 44.8 °F 68% 30.23 in 10.0 mi Calm Calm - N/A   Clear
10:55 PM 55.9 °F - 44.6 °F 66% 30.23 in 10.0 mi North 5.8 mph - N/A   Clear
11:15 PM 55.8 °F - 44.8 °F 67% 30.23 in 10.0 mi North 9.2 mph - N/A   Clear
11:35 PM 54.7 °F - 45.0 °F 70% 30.23 in 10.0 mi North 9.2 mph - N/A   Clear
11:55 PM 54.9 °F - 44.8 °F 69% 30.23 in 10.0 mi North 8.1 mph - N/A   Clear